DW4725 Weather Reports


Display with metric or nautical units.
time (UTC)temp
F
wind
direction
speed
MPH
gust
MPH
rain 1hr
in
rain 24hr
in
rain mn
in
humidity
%
barometer
mb
20260903161207 76 231 0.0 2.0 0.00 0.00 0.00 50 1024.4
20260903160959 76 233 0.0 2.0 0.00 0.00 0.00 49 1024.4
20260903160446 76 239 0.0 3.0 0.00 0.00 0.00 51 1024.3
20260903160242 76 234 0.0 3.0 0.00 0.00 0.00 52 1024.4
20260903160033 75 238 1.0 3.0 0.00 0.00 0.00 48 1024.4
20260903155824 75 231 1.0 5.0 0.00 0.00 0.00 51 1024.5
20260903155622 75 247 1.0 5.0 0.00 0.00 0.00 49 1024.5
20260903155101 75 235 2.0 5.0 0.00 0.00 0.00 45 1024.4
20260903154859 76 236 2.0 5.0 0.00 0.00 0.00 48 1024.3
20260903154653 76 245 1.0 5.0 0.00 0.00 0.00 43 1024.3
20260903154443 77 235 1.0 5.0 0.00 0.00 0.00 44 1024.4
20260903154235 77 209 0.0 5.0 0.00 0.00 0.00 44 1024.4
20260903154034 77 237 0.0 5.0 0.00 0.00 0.00 42 1024.3
20260903153825 77 262 0.0 4.0 0.00 0.00 0.00 47 1024.4
20260903153616 77 263 0.0 4.0 0.00 0.00 0.00 47 1024.3
20260903153052 77 248 0.0 4.0 0.00 0.00 0.00 46 1024.3
20260903152850 77 239 0.0 4.0 0.00 0.00 0.00 50 1024.3
20260903152331 77 250 0.0 3.0 0.00 0.00 0.00 47 1024.3
20260903151759 77 304 0.0 2.0 0.00 0.00 0.00 42 1024.4
20260903151551 77 315 0.0 2.0 0.00 0.00 0.00 44 1024.5
20260903151348 77 277 0.0 1.0 0.00 0.00 0.00 46 1024.5
20260903151141 76 217 0.0 1.0 0.00 0.00 0.00 45 1024.5
20260903150620 76 256 0.0 3.0 0.00 0.00 0.00 44 1024.6
20260903150420 76 252 0.0 3.0 0.00 0.00 0.00 45 1024.7
20260903150216 76 293 0.0 4.0 0.00 0.00 0.00 43 1024.6
20260903150006 76 297 0.0 4.0 0.00 0.00 0.00 44 1024.7
20260903145758 76 237 1.0 4.0 0.00 0.00 0.00 44 1024.7
20260903145555 76 281 1.0 4.0 0.00 0.00 0.00 44 1024.6
20260903145349 76 276 1.0 4.0 0.00 0.00 0.00 44 1024.6
20260903145144 76 297 1.0 6.0 0.00 0.00 0.00 44 1024.6
20260903144939 76 302 1.0 6.0 0.00 0.00 0.00 42 1024.5
20260903144735 76 307 1.0 6.0 0.00 0.00 0.00 44 1024.5
20260903144527 76 269 1.0 6.0 0.00 0.00 0.00 43 1024.5
20260903144325 76 298 1.0 6.0 0.00 0.00 0.00 45 1024.5
20260903144124 76 285 1.0 6.0 0.00 0.00 0.00 44 1024.5
20260903143924 76 215 1.0 6.0 0.00 0.00 0.00 45 1024.4
20260903143719 76 248 1.0 6.0 0.00 0.00 0.00 42 1024.4
20260903143517 76 278 1.0 6.0 0.00 0.00 0.00 40 1024.4
20260903143309 76 285 1.0 6.0 0.00 0.00 0.00 44 1024.3
20260903143106 76 275 1.0 6.0 0.00 0.00 0.00 44 1024.4
20260903142902 76 242 1.0 6.0 0.00 0.00 0.00 46 1024.5
20260903142657 76 239 1.0 6.0 0.00 0.00 0.00 47 1024.4
20260903142458 76 220 1.0 6.0 0.00 0.00 0.00 45 1024.5
20260903142250 76 245 1.0 6.0 0.00 0.00 0.00 49 1024.5
20260903142046 76 256 1.0 6.0 0.00 0.00 0.00 45 1024.5
20260903141840 76 259 2.0 6.0 0.00 0.00 0.00 47 1024.5
20260903141633 76 236 1.0 6.0 0.00 0.00 0.00 44 1024.5
20260903141111 76 223 1.0 5.0 0.00 0.00 0.00 43 1024.5
20260903140548 76 258 1.0 5.0 0.00 0.00 0.00 49 1024.5
20260903140345 76 255 2.0 5.0 0.00 0.00 0.00 48 1024.5
20260903140135 76 238 2.0 5.0 0.00 0.00 0.00 47 1024.6
20260903135924 76 240 2.0 5.0 0.00 0.00 0.00 44 1024.6
20260903135721 76 255 1.0 5.0 0.00 0.00 0.00 47 1024.6
20260903135513 76 264 1.0 5.0 0.00 0.00 0.00 47 1024.6
20260903135306 76 303 1.0 5.0 0.00 0.00 0.00 45 1024.6
20260903135055 76 303 1.0 5.0 0.00 0.00 0.00 44 1024.7
20260903134845 76 298 1.0 5.0 0.00 0.00 0.00 44 1024.8
20260903134634 76 249 1.0 5.0 0.00 0.00 0.00 45 1024.7
20260903134425 76 241 1.0 5.0 0.00 0.00 0.00 46 1024.6
20260903134224 76 241 1.0 5.0 0.00 0.00 0.00 46 1024.7
20260903133702 77 255 0.0 5.0 0.00 0.00 0.00 49 1024.7
20260903133452 76 258 0.0 4.0 0.00 0.00 0.00 47 1024.7
20260903132929 76 239 0.0 4.0 0.00 0.00 0.00 48 1024.7
20260903132728 75 241 0.0 2.0 0.00 0.00 0.00 47 1024.7
20260903132522 75 231 0.0 2.0 0.00 0.00 0.00 52 1024.7
20260903132314 75 236 0.0 2.0 0.00 0.00 0.00 49 1024.7
20260903132114 75 238 0.0 2.0 0.00 0.00 0.00 51 1024.7
20260903131908 75 290 0.0 2.0 0.00 0.00 0.00 50 1024.8
20260903131344 75 283 0.0 5.0 0.00 0.00 0.00 50 1024.8
20260903131139 75 274 0.0 5.0 0.00 0.00 0.00 49 1024.8
20260903130934 75 273 0.0 5.0 0.00 0.00 0.00 49 1024.8
20260903130725 75 243 0.0 5.0 0.00 0.00 0.00 51 1024.8
20260903130521 75 243 0.0 5.0 0.00 0.00 0.00 53 1024.8
20260903130321 75 250 0.0 5.0 0.00 0.00 0.00 51 1024.8
20260903130116 75 255 0.0 5.0 0.00 0.00 0.00 51 1024.8
20260903125913 75 241 0.0 5.0 0.00 0.00 0.00 52 1024.9
20260903125703 75 233 0.0 5.0 0.00 0.00 0.00 49 1024.9
20260903125458 75 237 0.0 3.0 0.00 0.00 0.00 52 1024.9
20260903124616 74 289 0.0 3.0 0.00 0.00 0.00 51 1025.0
20260903124413 74 258 0.0 3.0 0.00 0.00 0.00 54 1025.0
20260903124213 74 232 0.0 3.0 0.00 0.00 0.00 54 1025.0
20260903124007 74 233 0.0 3.0 0.00 0.00 0.00 54 1025.1
20260903123805 74 294 0.0 3.0 0.00 0.00 0.00 55 1025.1
20260903123558 74 285 0.0 3.0 0.00 0.00 0.00 53 1025.2
20260903123347 74 1 0.0 3.0 0.00 0.00 0.00 55 1025.1
20260903123139 74 8 0.0 3.0 0.00 0.00 0.00 57 1025.1
20260903122934 73 293 0.0 3.0 0.00 0.00 0.00 55 1025.1
20260903122728 74 271 0.0 2.0 0.00 0.00 0.00 58 1025.1
20260903122518 74 285 0.0 2.0 0.00 0.00 0.00 57 1025.1
20260903122315 73 307 0.0 2.0 0.00 0.00 0.00 59 1025.2
20260903122114 73 243 0.0 2.0 0.00 0.00 0.00 59 1025.1
20260903121905 73 251 0.0 2.0 0.00 0.00 0.00 56 1025.2
20260903121332 73 226 0.0 4.0 0.00 0.00 0.00 55 1025.2
20260903121131 73 243 0.0 4.0 0.00 0.00 0.00 58 1025.2
20260903120923 73 248 1.0 4.0 0.00 0.00 0.00 58 1025.4
20260903120719 73 288 0.0 5.0 0.00 0.00 0.00 58 1025.3
20260903115828 73 302 0.0 6.0 0.00 0.00 0.00 57 1025.0
20260903115618 73 270 0.0 6.0 0.00 0.00 0.00 55 1025.2
20260903115411 73 290 0.0 6.0 0.00 0.00 0.00 55 1025.1
20260903114853 73 232 1.0 6.0 0.00 0.00 0.00 59 1025.3
20260903114648 72 275 1.0 6.0 0.00 0.00 0.00 56 1025.3
20260903114440 72 295 1.0 6.0 0.00 0.00 0.00 57 1025.3
20260903114237 73 302 0.0 6.0 0.00 0.00 0.00 57 1025.4
20260903114034 73 291 0.0 6.0 0.00 0.00 0.00 55 1025.4
20260903113825 73 89 0.0 1.0 0.00 0.00 0.00 56 1025.5
20260903113622 73 39 0.0 1.0 0.00 0.00 0.00 56 1025.4
20260903113418 73 295 1.0 0.0 0.00 0.00 0.00 56 1025.5
20260903113208 73 293 2.0 6.0 0.00 0.00 0.00 58 1025.5
20260903113006 72 236 2.0 6.0 0.00 0.00 0.00 60 1025.4
20260903112805 72 245 1.0 6.0 0.00 0.00 0.00 62 1025.5
20260903112605 72 241 2.0 6.0 0.00 0.00 0.00 62 1025.5
20260903111721 72 236 1.0 6.0 0.00 0.00 0.00 62 1025.5
20260903111517 72 307 1.0 5.0 0.00 0.00 0.00 61 1025.5
20260903111313 72 223 1.0 5.0 0.00 0.00 0.00 62 1025.4
20260903111109 72 230 2.0 5.0 0.00 0.00 0.00 64 1025.5
20260903110859 71 241 1.0 5.0 0.00 0.00 0.00 62 1025.4
20260903110654 71 236 1.0 5.0 0.00 0.00 0.00 61 1025.6
20260903110453 71 227 1.0 6.0 0.00 0.00 0.00 60 1025.6
20260903110252 71 289 1.0 6.0 0.00 0.00 0.00 59 1025.5
20260903110046 71 269 1.0 6.0 0.00 0.00 0.00 63 1025.6
20260903105837 71 300 2.0 6.0 0.00 0.00 0.00 61 1025.5
20260903105630 71 299 2.0 6.0 0.00 0.00 0.00 60 1025.5
20260903105430 71 299 2.0 6.0 0.00 0.00 0.00 63 1025.6
20260903105230 71 244 2.0 6.0 0.00 0.00 0.00 62 1025.6
20260903104656 71 243 1.0 6.0 0.00 0.00 0.00 60 1025.4
20260903104447 71 307 1.0 6.0 0.00 0.00 0.00 60 1025.3
20260903104240 71 266 2.0 6.0 0.00 0.00 0.00 59 1025.4
20260903104038 71 222 2.0 6.0 0.00 0.00 0.00 58 1025.4
20260903103834 71 245 2.0 6.0 0.00 0.00 0.00 61 1025.3
20260903103631 71 235 2.0 6.0 0.00 0.00 0.00 59 1025.3
20260903103431 71 237 2.0 6.0 0.00 0.00 0.00 61 1025.4
20260903103229 71 250 1.0 6.0 0.00 0.00 0.00 62 1025.4
20260903103029 71 264 1.0 6.0 0.00 0.00 0.00 63 1025.4
20260903102822 71 270 1.0 5.0 0.00 0.00 0.00 64 1025.4
20260903102613 70 276 1.0 5.0 0.00 0.00 0.00 63 1025.3
20260903102410 70 271 1.0 5.0 0.00 0.00 0.00 65 1025.4
20260903102207 70 252 1.0 4.0 0.00 0.00 0.00 62 1025.4
20260903101959 71 226 1.0 4.0 0.00 0.00 0.00 60 1025.4
20260903101427 70 241 1.0 6.0 0.00 0.00 0.00 61 1025.4
20260903101218 70 224 1.0 6.0 0.00 0.00 0.00 63 1025.4
20260903101009 70 252 1.0 6.0 0.00 0.00 0.00 64 1025.6
20260903100807 70 306 1.0 5.0 0.00 0.00 0.00 62 1025.7
20260903100608 70 300 1.0 5.0 0.00 0.00 0.00 63 1025.6
20260903100401 70 309 1.0 5.0 0.00 0.00 0.00 62 1025.8
20260903095841 70 232 1.0 4.0 0.00 0.00 0.00 63 1025.6
20260903095635 70 250 1.0 0.0 0.00 0.00 0.00 64 1025.7
20260903095430 70 227 1.0 6.0 0.00 0.00 0.00 67 1025.6
20260903095223 70 227 1.0 5.0 0.00 0.00 0.00 64 1025.6
20260903094702 69 274 1.0 5.0 0.00 0.00 0.00 62 1025.5
20260903094455 69 302 1.0 5.0 0.00 0.00 0.00 64 1025.6
20260903094250 69 279 1.0 5.0 0.00 0.00 0.00 64 1025.5
20260903094046 69 230 1.0 5.0 0.00 0.00 0.00 65 1025.5
20260903093520 69 226 2.0 5.0 0.00 0.00 0.00 68 1025.5
20260903093319 69 226 2.0 5.0 0.00 0.00 0.00 66 1025.6
20260903093114 69 256 2.0 5.0 0.00 0.00 0.00 67 1025.5
20260903092554 69 237 1.0 5.0 0.00 0.00 0.00 69 1025.4
20260903092352 69 220 1.0 5.0 0.00 0.00 0.00 67 1025.4
20260903092146 69 245 0.0 5.0 0.00 0.00 0.00 67 1025.3
20260903091944 69 265 0.0 5.0 0.00 0.00 0.00 67 1025.4
20260903091108 69 102 0.0 2.0 0.00 0.00 0.00 68 1025.4
20260903090900 68 236 0.0 2.0 0.00 0.00 0.00 69 1025.5
20260903090659 68 269 0.0 2.0 0.00 0.00 0.00 68 1025.5
20260903090455 68 295 0.0 4.0 0.00 0.00 0.00 68 1025.5
20260903085606 67 282 0.0 4.0 0.00 0.00 0.00 69 1025.7
20260903085403 67 290 1.0 6.0 0.00 0.00 0.00 68 1025.7
20260903084839 67 298 1.0 6.0 0.00 0.00 0.00 69 1025.6
20260903084640 67 285 1.0 6.0 0.00 0.00 0.00 69 1025.5
20260903084438 67 286 1.0 6.0 0.00 0.00 0.00 69 1025.4
20260903084232 67 292 1.0 6.0 0.00 0.00 0.00 69 1025.4
20260903084029 67 299 1.0 6.0 0.00 0.00 0.00 69 1025.4
20260903083823 67 285 2.0 6.0 0.00 0.00 0.00 68 1025.5
20260903083618 67 300 1.0 6.0 0.00 0.00 0.00 70 1025.5
20260903083419 67 286 1.0 5.0 0.00 0.00 0.00 71 1025.5
20260903083213 67 278 1.0 5.0 0.00 0.00 0.00 70 1025.6
20260903082652 67 289 0.0 4.0 0.00 0.00 0.00 70 1025.3
20260903082443 68 242 0.0 4.0 0.00 0.00 0.00 72 1025.4
20260903082240 68 273 0.0 4.0 0.00 0.00 0.00 72 1025.4
20260903082040 67 270 0.0 4.0 0.00 0.00 0.00 71 1025.4
20260903081836 67 244 1.0 4.0 0.00 0.00 0.00 71 1025.4
20260903081636 67 241 0.0 3.0 0.00 0.00 0.00 69 1025.4
20260903081428 67 236 0.0 3.0 0.00 0.00 0.00 69 1025.4
20260903081228 67 235 0.0 3.0 0.00 0.00 0.00 71 1025.3
20260903081027 67 239 0.0 4.0 0.00 0.00 0.00 71 1025.3
20260903080819 67 264 0.0 4.0 0.00 0.00 0.00 73 1025.2
20260903080620 67 265 0.0 4.0 0.00 0.00 0.00 72 1025.3
20260903080413 67 281 1.0 4.0 0.00 0.00 0.00 70 1025.2
20260903080208 67 227 1.0 4.0 0.00 0.00 0.00 72 1025.2
20260903075643 67 240 1.0 4.0 0.00 0.00 0.00 70 1025.1
20260903075444 67 224 1.0 4.0 0.00 0.00 0.00 70 1025.2
20260903075240 67 231 1.0 4.0 0.00 0.00 0.00 71 1025.1
20260903074717 67 253 0.0 3.0 0.00 0.00 0.00 73 1025.2
20260903074510 67 233 0.0 3.0 0.00 0.00 0.00 72 1025.2
20260903074309 67 274 0.0 3.0 0.00 0.00 0.00 71 1025.1
20260903074110 67 236 0.0 3.0 0.00 0.00 0.00 72 1025.2
20260903073901 67 259 0.0 3.0 0.00 0.00 0.00 72 1025.1
20260903073654 67 242 0.0 5.0 0.00 0.00 0.00 73 1025.2
20260903073452 66 240 0.0 5.0 0.00 0.00 0.00 73 1025.2
20260903072934 66 239 0.0 5.0 0.00 0.00 0.00 72 1025.1
20260903072413 66 232 1.0 5.0 0.00 0.00 0.00 73 1025.1
20260903072211 66 236 1.0 5.0 0.00 0.00 0.00 73 1025.0
20260903071648 66 231 1.0 4.0 0.00 0.00 0.00 73 1025.1
20260903071448 66 210 0.0 4.0 0.00 0.00 0.00 72 1025.1
20260903070933 66 234 0.0 3.0 0.00 0.00 0.00 72 1025.1
20260903070415 66 244 0.0 0.0 0.00 0.00 0.00 76 1025.0
20260903070207 66 244 0.0 1.0 0.00 0.00 0.00 75 1025.2
20260903070007 66 244 0.0 1.0 0.00 0.00 0.00 74 1025.3
20260903065759 66 243 0.0 1.0 0.00 0.00 0.00 75 1025.4
20260903065559 66 231 0.0 1.0 0.00 0.00 0.00 75 1025.4
20260903065356 66 238 0.0 1.0 0.00 0.00 0.00 73 1025.3
20260903065150 66 237 0.0 1.0 0.00 0.00 0.00 74 1025.3
20260903064950 66 237 0.0 1.0 0.00 0.00 0.00 74 1025.3
20260903064414 66 188 0.0 0.0 0.00 0.00 0.00 74 1025.4
20260903064210 66 99 0.0 0.0 0.00 0.00 0.00 74 1025.3
20260903064008 66 89 0.0 0.0 0.00 0.00 0.00 76 1025.3
20260903062759 65 117 0.0 3.0 0.00 0.00 0.00 75 1025.1
20260903062552 65 134 0.0 2.0 0.00 0.00 0.00 75 1025.2
20260903062345 65 115 0.0 2.0 0.00 0.00 0.00 74 1025.2
20260903062138 65 120 0.0 1.0 0.00 0.00 0.00 75 1025.1
20260903061936 65 224 0.0 0.0 0.00 0.00 0.00 75 1025.1
20260903061728 64 233 0.0 0.0 0.00 0.00 0.00 75 1025.1
20260903061527 64 233 0.0 0.0 0.00 0.00 0.00 74 1025.0
20260903061316 64 233 0.0 0.0 0.00 0.00 0.00 75 1025.0
20260903061107 64 233 0.0 0.0 0.00 0.00 0.00 75 1025.0
20260903060906 64 233 0.0 0.0 0.00 0.00 0.00 75 1025.0
20260903060702 64 233 0.0 0.0 0.00 0.00 0.00 75 1024.8
20260903060452 63 233 0.0 0.0 0.00 0.00 0.00 75 1024.8
20260903060249 63 233 0.0 0.0 0.00 0.00 0.00 75 1024.7
20260903060050 63 233 0.0 0.0 0.00 0.00 0.00 75 1024.7
20260903055847 63 224 0.0 1.0 0.00 0.00 0.00 75 1024.7
20260903055637 63 219 0.0 1.0 0.00 0.00 0.00 76 1024.6
20260903055431 63 218 0.0 1.0 0.00 0.00 0.00 76 1024.7
20260903055220 63 225 0.0 1.0 0.00 0.00 0.00 76 1024.7
20260903055010 63 151 0.0 0.0 0.00 0.00 0.00 76 1024.7
20260903054803 63 151 0.0 0.0 0.00 0.00 0.00 76 1024.8
20260903054555 63 109 0.0 0.0 0.00 0.00 0.00 76 1024.9
20260903054349 62 108 0.0 0.0 0.00 0.00 0.00 76 1024.8
20260903054139 62 109 0.0 0.0 0.00 0.00 0.00 75 1024.8
20260903053936 62 108 0.0 0.0 0.00 0.00 0.00 76 1024.7
20260903053729 62 109 0.0 0.0 0.00 0.00 0.00 75 1024.6
20260903053210 62 109 0.0 0.0 0.00 0.00 0.00 75 1024.6
20260903053006 62 108 0.0 0.0 0.00 0.00 0.00 75 1024.6
20260903052803 62 108 0.0 0.0 0.00 0.00 0.00 75 1024.7
20260903052601 62 108 0.0 0.0 0.00 0.00 0.00 75 1024.6
20260903052353 62 109 0.0 0.0 0.00 0.00 0.00 76 1024.5
20260903052151 61 108 0.0 0.0 0.00 0.00 0.00 76 1024.5
20260903051942 61 108 0.0 0.0 0.00 0.00 0.00 76 1024.4
20260903051735 61 113 0.0 4.0 0.00 0.00 0.00 77 1024.3
20260903051528 61 113 1.0 4.0 0.00 0.00 0.00 77 1024.4
20260903051324 60 116 1.0 4.0 0.00 0.00 0.00 78 1024.4
20260903051121 60 143 1.0 4.0 0.00 0.00 0.00 78 1024.4
20260903050912 60 125 1.0 4.0 0.00 0.00 0.00 79 1024.4
20260903050705 59 103 1.0 5.0 0.00 0.00 0.00 79 1024.4
20260903050140 59 100 2.0 5.0 0.00 0.00 0.00 80 1024.3
20260903045931 58 103 3.0 5.0 0.00 0.00 0.00 80 1024.4
20260903045730 58 124 3.0 6.0 0.00 0.00 0.00 81 1024.3
20260903045521 58 134 3.0 6.0 0.00 0.00 0.00 81 1024.3
20260903045319 58 118 3.0 6.0 0.00 0.00 0.00 81 1024.3
20260903044429 59 74 3.0 6.0 0.00 0.00 0.00 79 1024.3
20260903044230 59 90 3.0 6.0 0.00 0.00 0.00 79 1024.2
20260903044025 60 114 2.0 6.0 0.00 0.00 0.00 78 1024.3
20260903043817 60 115 2.0 5.0 0.00 0.00 0.00 77 1024.3
20260903043609 60 66 2.0 5.0 0.00 0.00 0.00 77 1024.3
20260903043359 60 106 2.0 5.0 0.00 0.00 0.00 77 1024.3
20260903043150 60 94 2.0 5.0 0.00 0.00 0.00 78 1024.3
20260903042950 60 109 2.0 5.0 0.00 0.00 0.00 78 1024.2
20260903042743 60 115 2.0 5.0 0.00 0.00 0.00 78 1024.4
20260903042539 60 107 2.0 5.0 0.00 0.00 0.00 78 1024.4
20260903042340 60 107 2.0 5.0 0.00 0.00 0.00 78 1024.2
20260903041455 60 109 3.0 5.0 0.00 0.00 0.00 78 1024.3
20260903041247 60 103 3.0 5.0 0.00 0.00 0.00 78 1024.3
20260903041037 60 120 3.0 5.0 0.00 0.00 0.00 78 1024.3
20260903040515 60 117 2.0 5.0 0.00 0.00 0.00 77 1024.3
20260903040308 60 110 2.0 4.0 0.00 0.00 0.00 77 1024.3
20260903040059 60 97 1.0 3.0 0.00 0.00 0.00 77 1024.5
20260903035855 61 105 1.0 3.0 0.00 0.00 0.00 76 1024.5
20260903035328 61 115 1.0 3.0 0.00 0.00 0.00 76 1024.5
20260903035123 61 111 1.0 3.0 0.00 0.00 0.00 76 1024.5
20260903034914 61 118 1.0 3.0 0.00 0.00 0.00 76 1024.3
20260903034711 61 96 1.0 3.0 0.00 0.00 0.00 76 1024.4
20260903034139 61 109 1.0 3.0 0.00 0.00 0.00 76 1024.2
20260903033937 61 129 1.0 3.0 0.00 0.00 0.00 77 1024.2
20260903033737 61 84 0.0 3.0 0.00 0.00 0.00 77 1024.3
20260903033528 61 106 0.0 3.0 0.00 0.00 0.00 77 1024.2
20260903033319 60 106 0.0 3.0 0.00 0.00 0.00 77 1024.2
20260903033115 60 105 0.0 1.0 0.00 0.00 0.00 77 1024.2
20260903032913 60 101 0.0 1.0 0.00 0.00 0.00 77 1024.2
20260903032714 61 81 0.0 0.0 0.00 0.00 0.00 77 1024.2
20260903032508 61 83 0.0 2.0 0.00 0.00 0.00 77 1024.2
20260903032306 60 95 0.0 2.0 0.00 0.00 0.00 77 1024.2
20260903031433 61 86 0.0 3.0 0.00 0.00 0.00 77 1024.1
20260903031233 60 100 1.0 3.0 0.00 0.00 0.00 77 1024.1
20260903031030 60 100 1.0 3.0 0.00 0.00 0.00 77 1024.1
20260903030824 60 107 1.0 3.0 0.00 0.00 0.00 77 1024.1
20260903030625 60 103 1.0 3.0 0.00 0.00 0.00 77 1024.2
20260903030425 60 102 1.0 3.0 0.00 0.00 0.00 77 1024.1
20260903030226 60 128 1.0 3.0 0.00 0.00 0.00 77 1024.2
20260903030027 60 94 1.0 3.0 0.00 0.00 0.00 77 1024.2
20260903025817 60 124 1.0 3.0 0.00 0.00 0.00 77 1024.2
20260903025617 60 113 1.0 3.0 0.00 0.00 0.00 77 1024.1
20260903025414 61 110 1.0 3.0 0.00 0.00 0.00 77 1024.1
20260903025209 61 103 0.0 3.0 0.00 0.00 0.00 77 1024.2
20260903025000 61 105 0.0 3.0 0.00 0.00 0.00 77 1024.1
20260903024757 61 105 0.0 3.0 0.00 0.00 0.00 77 1024.1
20260903024558 61 96 0.0 3.0 0.00 0.00 0.00 77 1024.2
20260903024358 61 98 0.0 3.0 0.00 0.00 0.00 77 1024.1
20260903024150 61 106 0.0 3.0 0.00 0.00 0.00 77 1024.1
20260903023942 60 111 0.0 3.0 0.00 0.00 0.00 77 1024.2
20260903023733 60 106 0.0 2.0 0.00 0.00 0.00 78 1024.2
20260903023526 60 116 0.0 2.0 0.00 0.00 0.00 78 1024.2
20260903023325 60 98 0.0 1.0 0.00 0.00 0.00 78 1024.2
20260903023115 60 106 0.0 3.0 0.00 0.00 0.00 78 1024.2
20260903022909 60 223 0.0 3.0 0.00 0.00 0.00 77 1024.2
20260903022702 60 238 0.0 3.0 0.00 0.00 0.00 77 1024.2
20260903022452 60 223 0.0 3.0 0.00 0.00 0.00 77 1024.1
20260903022250 60 86 0.0 3.0 0.00 0.00 0.00 77 1024.2
20260903022045 60 120 0.0 3.0 0.00 0.00 0.00 77 1024.2
20260903021845 60 105 0.0 3.0 0.00 0.00 0.00 77 1024.2
20260903021321 61 81 0.0 1.0 0.00 0.00 0.00 76 1024.2
20260903021121 61 141 0.0 0.0 0.00 0.00 0.00 76 1024.2
20260903020556 61 141 0.0 0.0 0.00 0.00 0.00 76 1024.1
20260903020345 61 141 0.0 2.0 0.00 0.00 0.00 76 1024.1
20260903015829 61 128 0.0 2.0 0.00 0.00 0.00 76 1024.1
20260903015619 61 131 0.0 2.0 0.00 0.00 0.00 76 1024.1
20260903015410 61 131 0.0 2.0 0.00 0.00 0.00 77 1024.1
20260903015207 61 105 0.0 0.0 0.00 0.00 0.00 76 1024.1
20260903015001 61 225 0.0 0.0 0.00 0.00 0.00 76 1024.1
20260903014752 61 225 0.0 0.0 0.00 0.00 0.00 76 1024.2
20260903014222 61 225 0.0 0.0 0.00 0.00 0.00 76 1024.2
20260903013657 61 225 0.0 0.0 0.00 0.00 0.00 76 1024.1
20260903013457 61 225 0.0 0.0 0.00 0.00 0.00 76 1024.1
20260903013258 61 225 0.0 0.0 0.00 0.00 0.00 76 1024.1
20260903012406 61 225 0.0 0.0 0.00 0.00 0.00 75 1024.1
20260903012156 61 224 0.0 0.0 0.00 0.00 0.00 75 1024.2
20260903011632 62 224 0.0 0.0 0.00 0.00 0.00 75 1024.2
20260903011429 62 224 0.0 0.0 0.00 0.00 0.00 75 1024.1
20260903011220 62 224 0.0 0.0 0.00 0.00 0.00 75 1024.1
20260903011015 62 224 0.0 1.0 0.00 0.00 0.00 75 1024.2
20260903010807 62 230 0.0 0.0 0.00 0.00 0.00 75 1024.2
20260903010559 62 230 0.0 0.0 0.00 0.00 0.00 75 1024.2
20260903010353 62 230 0.0 0.0 0.00 0.00 0.00 75 1024.2
20260903010150 62 230 0.0 0.0 0.00 0.00 0.00 75 1024.1
20260903005947 62 230 0.0 0.0 0.00 0.00 0.00 75 1024.1
20260903005744 62 231 0.0 0.0 0.00 0.00 0.00 75 1024.1
20260903005536 62 233 0.0 0.0 0.00 0.00 0.00 75 1024.2
20260903005329 62 231 0.0 0.0 0.00 0.00 0.00 75 1024.1
20260903005124 62 230 0.0 0.0 0.00 0.00 0.00 75 1024.1
20260903004602 62 226 0.0 0.0 0.00 0.00 0.00 75 1024.2
20260903004359 62 233 0.0 2.0 0.00 0.00 0.00 75 1024.1
20260903003517 62 231 0.0 1.0 0.00 0.00 0.00 75 1024.1
20260903003310 62 221 0.0 1.0 0.00 0.00 0.00 75 1024.1
20260903003109 62 238 0.0 1.0 0.00 0.00 0.00 75 1024.1
20260903002901 62 233 0.0 1.0 0.00 0.00 0.00 75 1024.1
20260903002701 62 220 0.0 1.0 0.00 0.00 0.00 75 1024.1
20260903002456 62 215 0.0 0.0 0.00 0.00 0.00 75 1024.2
20260903002247 62 235 0.0 0.0 0.00 0.00 0.00 75 1024.1
20260903002043 62 238 0.0 2.0 0.00 0.00 0.00 75 1024.2
20260903001515 62 236 0.0 2.0 0.00 0.00 0.00 75 1024.1
20260903000955 62 236 0.0 2.0 0.00 0.00 0.00 75 1024.0
20260903000756 62 243 0.0 2.0 0.00 0.00 0.00 75 1024.0
20260903000551 62 232 0.0 2.0 0.00 0.00 0.00 75 1024.0
20260903000342 62 231 0.0 3.0 0.00 0.00 0.00 74 1024.1
20260902235818 62 229 0.0 3.0 0.00 0.00 0.00 74 1024.1
20260902235613 62 244 0.0 3.0 0.00 0.00 0.00 74 1024.2
20260902235411 62 249 0.0 3.0 0.00 0.00 0.00 74 1024.1
20260902235212 62 245 0.0 3.0 0.00 0.00 0.00 74 1024.1
20260902235011 62 250 0.0 3.0 0.00 0.00 0.00 74 1024.1
20260902234811 62 260 0.0 3.0 0.00 0.00 0.00 74 1024.1
20260902234248 63 235 0.0 2.0 0.00 0.00 0.00 74 1024.1
20260902234039 63 243 0.0 2.0 0.00 0.00 0.00 73 1024.1
20260902233828 63 243 0.0 2.0 0.00 0.00 0.00 73 1024.1
20260902233622 63 242 0.0 2.0 0.00 0.00 0.00 73 1024.1
20260902233417 63 243 0.0 2.0 0.00 0.00 0.00 73 1024.1
20260902233216 63 215 0.0 2.0 0.00 0.00 0.00 73 1024.1
20260902233015 63 245 0.0 2.0 0.00 0.00 0.00 73 1024.2
20260902232813 63 249 0.0 2.0 0.00 0.00 0.00 72 1024.2
20260902232604 63 240 0.0 2.0 0.00 0.00 0.00 72 1024.2
20260902232034 63 240 0.0 0.0 0.00 0.00 0.00 72 1024.3
20260902231830 64 238 0.0 0.0 0.00 0.00 0.00 72 1024.2
20260902231625 64 238 0.0 0.0 0.00 0.00 0.00 72 1024.2
20260902231419 64 238 0.0 0.0 0.00 0.00 0.00 71 1024.2
20260902230856 64 238 0.0 1.0 0.00 0.00 0.00 71 1024.2
20260902230655 64 231 0.0 1.0 0.00 0.00 0.00 70 1024.3
20260902230447 65 231 0.0 1.0 0.00 0.00 0.00 70 1024.2
20260902230244 65 231 0.0 1.0 0.00 0.00 0.00 70 1024.2
20260902230043 65 232 0.0 2.0 0.00 0.00 0.00 70 1024.2
20260902225839 65 232 0.0 2.0 0.00 0.00 0.00 70 1024.3
20260902225638 65 238 0.0 2.0 0.00 0.00 0.00 70 1024.3
20260902225427 65 224 0.0 2.0 0.00 0.00 0.00 70 1024.4
20260902225219 65 228 0.0 2.0 0.00 0.00 0.00 70 1024.3
20260902225013 65 217 0.0 1.0 0.00 0.00 0.00 70 1024.3
20260902224804 65 217 0.0 1.0 0.00 0.00 0.00 70 1024.4
20260902224233 64 241 0.0 1.0 0.00 0.00 0.00 71 1024.3
20260902224026 64 226 0.0 0.0 0.00 0.00 0.00 71 1024.3
20260902223500 65 170 0.0 0.0 0.00 0.00 0.00 71 1024.3
20260902223251 65 170 0.0 0.0 0.00 0.00 0.00 71 1024.2
20260902223047 65 170 0.0 0.0 0.00 0.00 0.00 71 1024.3
20260902222839 65 89 0.0 2.0 0.00 0.00 0.00 71 1024.3
20260902222319 65 198 0.0 0.0 0.00 0.00 0.00 71 1024.3
20260902222118 65 143 0.0 0.0 0.00 0.00 0.00 71 1024.3
20260902221914 65 140 0.0 0.0 0.00 0.00 0.00 71 1024.2
20260902221707 65 136 0.0 0.0 0.00 0.00 0.00 71 1024.3
20260902221507 65 135 0.0 0.0 0.00 0.00 0.00 71 1024.2
20260902221306 65 107 0.0 0.0 0.00 0.00 0.00 71 1024.2
20260902220737 65 92 0.0 1.0 0.00 0.00 0.00 71 1024.3
20260902220532 65 214 0.0 0.0 0.00 0.00 0.00 71 1024.4
20260902220327 65 226 0.0 1.0 0.00 0.00 0.00 71 1024.3
20260902220126 65 231 0.0 1.0 0.00 0.00 0.00 71 1024.3
20260902215927 65 132 0.0 0.0 0.00 0.00 0.00 71 1024.3
20260902215720 65 110 0.0 0.0 0.00 0.00 0.00 70 1024.2
20260902215510 66 110 0.0 0.0 0.00 0.00 0.00 70 1024.2
20260902215306 66 110 0.0 0.0 0.00 0.00 0.00 70 1024.2
20260902215059 66 110 0.0 2.0 0.00 0.00 0.00 70 1024.3
20260902214528 66 108 1.0 2.0 0.00 0.00 0.00 70 1024.3
20260902214323 66 116 1.0 2.0 0.00 0.00 0.00 70 1024.3
20260902214120 66 115 1.0 2.0 0.00 0.00 0.00 70 1024.3
20260902213922 66 115 0.0 2.0 0.00 0.00 0.00 69 1024.3
20260902213720 66 119 0.0 2.0 0.00 0.00 0.00 69 1024.3
20260902213519 66 113 0.0 2.0 0.00 0.00 0.00 69 1024.3
20260902213003 66 106 0.0 0.0 0.00 0.00 0.00 69 1024.3
20260902212759 66 106 0.0 1.0 0.00 0.00 0.00 69 1024.3
20260902212557 66 113 0.0 1.0 0.00 0.00 0.00 69 1024.2
20260902212033 66 112 0.0 0.0 0.00 0.00 0.00 69 1024.3
20260902211823 66 112 0.0 0.0 0.00 0.00 0.00 69 1024.3
20260902211615 66 113 0.0 0.0 0.00 0.00 0.00 69 1024.3
20260902211411 66 112 0.0 0.0 0.00 0.00 0.00 68 1024.3
20260902211203 66 112 0.0 0.0 0.00 0.00 0.00 68 1024.3
20260902211000 66 113 0.0 0.0 0.00 0.00 0.00 68 1024.3
20260902210758 66 112 0.0 0.0 0.00 0.00 0.00 68 1024.3
20260902210553 66 112 0.0 0.0 0.00 0.00 0.00 68 1024.3
20260902210345 66 112 0.0 0.0 0.00 0.00 0.00 69 1024.2
20260902210146 66 112 0.0 0.0 0.00 0.00 0.00 69 1024.2
20260902205940 66 112 0.0 0.0 0.00 0.00 0.00 69 1024.1
20260902205415 66 112 0.0 0.0 0.00 0.00 0.00 69 1024.2
20260902205209 66 112 0.0 0.0 0.00 0.00 0.00 69 1024.2
20260902205007 66 112 0.0 0.0 0.00 0.00 0.00 69 1024.2
20260902204437 66 112 0.0 0.0 0.00 0.00 0.00 69 1024.2
20260902204227 66 112 0.0 2.0 0.00 0.00 0.00 69 1024.2
20260902204028 66 112 0.0 3.0 0.00 0.00 0.00 69 1024.2
20260902203819 66 112 0.0 3.0 0.00 0.00 0.00 69 1024.2
20260902203617 66 101 0.0 3.0 0.00 0.00 0.00 70 1024.2
20260902202735 66 105 1.0 3.0 0.00 0.00 0.00 70 1024.1
20260902202528 66 120 1.0 3.0 0.00 0.00 0.00 70 1024.1
20260902202320 66 113 1.0 3.0 0.00 0.00 0.00 70 1024.1
20260902202119 66 117 0.0 3.0 0.00 0.00 0.00 70 1024.1
20260902201919 66 125 0.0 2.0 0.00 0.00 0.00 70 1024.1
20260902201355 66 105 0.0 1.0 0.00 0.00 0.00 69 1024.1
20260902201145 66 276 0.0 0.0 0.00 0.00 0.00 69 1024.2
20260902200935 66 276 0.0 0.0 0.00 0.00 0.00 69 1024.2
20260902200729 66 277 0.0 0.0 0.00 0.00 0.00 69 1024.1
20260902200527 66 277 0.0 0.0 0.00 0.00 0.00 69 1024.2
20260902200327 66 276 0.0 0.0 0.00 0.00 0.00 69 1024.2
20260902200123 66 276 0.0 0.0 0.00 0.00 0.00 68 1024.1
20260902195917 66 276 0.0 0.0 0.00 0.00 0.00 68 1024.1
20260902195713 66 276 0.0 0.0 0.00 0.00 0.00 68 1024.1
20260902195503 66 276 0.0 0.0 0.00 0.00 0.00 68 1024.1
20260902195259 66 276 0.0 0.0 0.00 0.00 0.00 68 1024.1
20260902194741 66 276 0.0 0.0 0.00 0.00 0.00 68 1024.0
20260902194540 66 276 0.0 0.0 0.00 0.00 0.00 68 1024.1
20260902194331 66 276 0.0 0.0 0.00 0.00 0.00 68 1023.9
20260902194128 66 277 0.0 0.0 0.00 0.00 0.00 68 1024.0
20260902193918 66 276 0.0 0.0 0.00 0.00 0.00 68 1024.0
20260902193357 66 276 0.0 0.0 0.00 0.00 0.00 69 1023.9
20260902193158 66 276 0.0 0.0 0.00 0.00 0.00 69 1023.8
20260902192951 66 276 0.0 0.0 0.00 0.00 0.00 69 1023.8
20260902192427 66 276 0.0 0.0 0.00 0.00 0.00 69 1023.8
20260902192217 66 276 0.0 0.0 0.00 0.00 0.00 69 1023.7
20260902192017 66 277 0.0 0.0 0.00 0.00 0.00 68 1023.7
20260902191810 66 276 0.0 0.0 0.00 0.00 0.00 68 1023.7
20260902191601 66 277 0.0 0.0 0.00 0.00 0.00 68 1023.7
20260902191354 66 276 0.0 0.0 0.00 0.00 0.00 68 1023.7
20260902191151 66 276 0.0 0.0 0.00 0.00 0.00 68 1023.7
20260902190945 66 277 0.0 0.0 0.00 0.00 0.00 68 1023.6
20260902190742 66 276 0.0 0.0 0.00 0.00 0.00 68 1023.7
20260902190537 66 276 0.0 0.0 0.00 0.00 0.00 68 1023.6
20260902190327 66 276 0.0 0.0 0.00 0.00 0.00 68 1023.6
20260902185801 66 276 0.0 0.0 0.00 0.00 0.00 69 1023.4
20260902185559 67 276 0.0 0.0 0.00 0.00 0.00 68 1023.4
20260902185355 67 276 0.0 0.0 0.00 0.00 0.00 68 1023.4
20260902185153 67 277 0.0 0.0 0.00 0.00 0.00 69 1023.4
20260902184954 67 276 0.0 0.0 0.00 0.00 0.00 69 1023.4
20260902184750 67 276 0.0 0.0 0.00 0.00 0.00 68 1023.3
20260902184551 67 276 0.0 0.0 0.00 0.00 0.00 68 1023.3
20260902184349 67 277 0.0 0.0 0.00 0.00 0.00 68 1023.3
20260902184144 67 277 0.0 0.0 0.00 0.00 0.00 68 1023.3
20260902183943 67 276 0.0 0.0 0.00 0.00 0.00 68 1023.2
20260902183742 67 276 0.0 0.0 0.00 0.00 0.00 68 1023.2
20260902183535 67 276 0.0 0.0 0.00 0.00 0.00 68 1023.0
20260902183012 67 276 0.0 0.0 0.00 0.00 0.00 68 1023.0
20260902182805 68 276 0.0 4.0 0.00 0.00 0.00 68 1023.0
20260902182604 68 276 0.0 4.0 0.00 0.00 0.00 68 1023.0
20260902182036 68 298 0.0 4.0 0.00 0.00 0.00 67 1023.0
20260902181833 68 299 0.0 4.0 0.00 0.00 0.00 67 1023.0
20260902181633 68 290 0.0 4.0 0.00 0.00 0.00 67 1023.0
20260902181426 69 293 0.0 4.0 0.00 0.00 0.00 66 1022.9
20260902181218 69 281 0.0 4.0 0.00 0.00 0.00 66 1022.9
20260902181016 69 280 0.0 1.0 0.00 0.00 0.00 65 1022.9
20260902180807 69 240 0.0 0.0 0.00 0.00 0.00 65 1022.8
20260902180605 69 240 0.0 0.0 0.00 0.00 0.00 65 1022.9
20260902180403 69 240 0.0 1.0 0.00 0.00 0.00 65 1022.8
20260902180157 69 242 0.0 1.0 0.00 0.00 0.00 65 1022.8
20260902175636 69 242 0.0 0.0 0.00 0.00 0.00 65 1022.8
20260902175434 69 242 0.0 0.0 0.00 0.00 0.00 65 1022.8
20260902174908 70 238 0.0 0.0 0.00 0.00 0.00 65 1022.7
20260902174335 70 231 0.0 0.0 0.00 0.00 0.00 64 1022.6
20260902173813 70 231 0.0 0.0 0.00 0.00 0.00 64 1022.7
20260902173614 70 231 0.0 0.0 0.00 0.00 0.00 64 1022.7
20260902173409 70 231 0.0 0.0 0.00 0.00 0.00 64 1022.6
20260902173201 70 231 0.0 0.0 0.00 0.00 0.00 63 1022.7
20260902173002 70 231 0.0 0.0 0.00 0.00 0.00 63 1022.6
20260902172757 71 231 0.0 0.0 0.00 0.00 0.00 63 1022.6
20260902172549 71 231 0.0 0.0 0.00 0.00 0.00 63 1022.6
20260902172340 71 231 0.0 1.0 0.00 0.00 0.00 63 1022.7
20260902172132 71 231 0.0 1.0 0.00 0.00 0.00 64 1022.7
20260902171922 71 231 0.0 1.0 0.00 0.00 0.00 64 1022.8
20260902171403 71 231 0.0 0.0 0.00 0.00 0.00 62 1022.6
20260902171159 71 231 0.0 0.0 0.00 0.00 0.00 63 1022.7
20260902170959 71 231 0.0 0.0 0.00 0.00 0.00 62 1022.7
20260902170752 71 231 0.0 0.0 0.00 0.00 0.00 63 1022.7
20260902165917 71 231 0.0 2.0 0.00 0.00 0.00 61 1022.7
20260902165717 71 231 0.0 2.0 0.00 0.00 0.00 61 1022.6
20260902165514 71 231 0.0 2.0 0.00 0.00 0.00 61 1022.6
20260902165309 72 231 0.0 2.0 0.00 0.00 0.00 61 1022.6
20260902165100 72 231 0.0 2.0 0.00 0.00 0.00 62 1022.6
20260902164854 72 239 0.0 2.0 0.00 0.00 0.00 62 1022.7
20260902164654 72 238 0.0 2.0 0.00 0.00 0.00 61 1022.6
20260902164446 72 238 0.0 2.0 0.00 0.00 0.00 62 1022.6
20260902164239 72 235 0.0 2.0 0.00 0.00 0.00 61 1022.6
20260902164034 73 250 0.0 1.0 0.00 0.00 0.00 61 1022.6
20260902163825 73 237 0.0 1.0 0.00 0.00 0.00 60 1022.7
20260902163623 73 259 0.0 1.0 0.00 0.00 0.00 61 1022.6
20260902163418 73 261 0.0 0.0 0.00 0.00 0.00 60 1022.6
20260902163218 73 262 0.0 0.0 0.00 0.00 0.00 59 1022.6
20260902163012 74 262 0.0 5.0 0.00 0.00 0.00 59 1022.6
20260902162807 74 282 0.0 5.0 0.00 0.00 0.00 59 1022.7
20260902162557 74 276 0.0 5.0 0.00 0.00 0.00 58 1022.6
20260902162034 74 297 1.0 5.0 0.00 0.00 0.00 57 1022.6
20260902161831 74 296 1.0 5.0 0.00 0.00 0.00 56 1022.6
20260902161308 74 321 0.0 4.0 0.00 0.00 0.00 58 1022.6